FIN7AT EVRA-EFHK

Flight info

Callsign FIN7AT
Flight time 0h 44m
Altitude 35000
Route SOKVA DCT ANAMA DCT KEMET DCT KEXLE DCT BEKNA DCT INTOR
Aircraft A320/M-SDE1E2E3FGIJ1M1RWXY/LB1

Departure

Time 2026-04-26 17:31
Airport Riga International Airport (EVRA)

Arrival

Time 2026-04-26 18:15
Airport Helsinki Vantaa Airport (EFHK)
Time Latitude Longitude Altitude Speed Heading
2026-04-26 17:03 56.92294 23.97682 33 ft 0 kts 185°
2026-04-26 17:20 56.92317 23.97688 32 ft 4 kts 198°
2026-04-26 17:20 56.92333 23.97700 32 ft 4 kts 220°
2026-04-26 17:20 56.92345 23.97742 32 ft 1 kts 275°
2026-04-26 17:20 56.92345 23.97749 32 ft 0 kts 275°
2026-04-26 17:24 56.92345 23.97745 35 ft 1 kts 275°
2026-04-26 17:25 56.92347 23.97713 35 ft 4 kts 275°
2026-04-26 17:25 56.92350 23.97644 35 ft 7 kts 275°
2026-04-26 17:25 56.92352 23.97540 35 ft 9 kts 261°
2026-04-26 17:25 56.92297 23.97490 35 ft 9 kts 187°
2026-04-26 17:26 56.92238 23.97481 35 ft 8 kts 185°
2026-04-26 17:26 56.92186 23.97473 35 ft 7 kts 185°
2026-04-26 17:26 56.92139 23.97464 35 ft 6 kts 186°
2026-04-26 17:26 56.92097 23.97457 35 ft 6 kts 185°
2026-04-26 17:27 56.92061 23.97452 43 ft 5 kts 184°
2026-04-26 17:27 56.92028 23.97447 35 ft 4 kts 184°
2026-04-26 17:27 56.91997 23.97443 35 ft 5 kts 183°
2026-04-26 17:27 56.91944 23.97439 35 ft 11 kts 182°
2026-04-26 17:28 56.91848 23.97428 35 ft 16 kts 184°
2026-04-26 17:28 56.91741 23.97410 35 ft 15 kts 185°
2026-04-26 17:28 56.91640 23.97393 33 ft 14 kts 186°
2026-04-26 17:28 56.91544 23.97377 35 ft 13 kts 185°
2026-04-26 17:29 56.91453 23.97361 35 ft 13 kts 185°
2026-04-26 17:29 56.91394 23.97352 35 ft 12 kts 185°
2026-04-26 17:29 56.91312 23.97245 35 ft 10 kts 229°
2026-04-26 17:29 56.91271 23.97148 35 ft 9 kts 239°
2026-04-26 17:30 56.91256 23.97050 37 ft 8 kts 268°
2026-04-26 17:30 56.91268 23.96952 39 ft 7 kts 323°
2026-04-26 17:30 56.91324 23.96949 38 ft 9 kts
2026-04-26 17:30 56.91528 23.96981 38 ft 65 kts
2026-04-26 17:31 56.92200 23.97086 36 ft 128 kts
2026-04-26 17:31 56.93173 23.97247 501 ft 140 kts 358°
2026-04-26 17:31 56.94137 23.97386 1357 ft 137 kts 359°
2026-04-26 17:31 56.95066 23.97624 2201 ft 133 kts
2026-04-26 17:32 56.95948 23.98085 2983 ft 131 kts 11°
2026-04-26 17:32 56.96753 23.98853 3746 ft 132 kts 22°
2026-04-26 17:32 56.97439 23.99998 4467 ft 136 kts 33°
2026-04-26 17:32 56.98221 24.00846 4883 ft 134 kts 357°
2026-04-26 17:33 56.99225 24.00823 5216 ft 155 kts 354°
2026-04-26 17:33 57.00375 24.00747 5564 ft 180 kts 354°
2026-04-26 17:33 57.01732 24.00634 6035 ft 205 kts 354°
2026-04-26 17:34 57.04817 24.00801 7541 ft 233 kts
2026-04-26 17:34 57.06421 24.01329 8575 ft 235 kts
2026-04-26 17:34 57.08032 24.01926 9632 ft 237 kts
2026-04-26 17:34 57.09671 24.02535 10411 ft 249 kts
2026-04-26 17:35 57.11449 24.03167 10810 ft 270 kts
2026-04-26 17:35 57.13328 24.03823 11545 ft 278 kts
2026-04-26 17:35 57.15250 24.04489 12403 ft 283 kts
2026-04-26 17:35 57.17201 24.05157 13263 ft 287 kts
2026-04-26 17:36 57.19157 24.05818 14056 ft 292 kts
2026-04-26 17:36 57.21195 24.06503 14831 ft 295 kts
2026-04-26 17:36 57.23191 24.07174 15592 ft 298 kts
2026-04-26 17:36 57.25249 24.07862 16363 ft 301 kts
2026-04-26 17:37 57.27320 24.08554 17140 ft 304 kts
2026-04-26 17:37 57.29416 24.09255 17845 ft 309 kts
2026-04-26 17:37 57.31551 24.09974 18497 ft 314 kts
2026-04-26 17:38 57.35871 24.11432 19896 ft 316 kts
2026-04-26 17:38 57.38032 24.12159 20649 ft 316 kts
2026-04-26 17:38 57.40193 24.12884 21402 ft 315 kts
2026-04-26 17:38 57.42352 24.13609 22167 ft 315 kts
2026-04-26 17:39 57.44511 24.14339 22923 ft 315 kts
2026-04-26 17:39 57.46666 24.15073 23625 ft 316 kts
2026-04-26 17:39 57.48835 24.15809 24193 ft 317 kts
2026-04-26 17:39 57.51009 24.16546 24692 ft 319 kts
2026-04-26 17:40 57.53197 24.17286 25178 ft 321 kts
2026-04-26 17:40 57.54665 24.17782 25489 ft 323 kts
2026-04-26 17:40 57.57652 24.18794 26071 ft 330 kts
2026-04-26 17:40 57.59891 24.19556 26447 ft 334 kts
2026-04-26 17:41 57.62191 24.20344 26856 ft 338 kts
2026-04-26 17:41 57.64506 24.21138 27279 ft 340 kts
2026-04-26 17:41 57.66851 24.21942 27695 ft 343 kts
2026-04-26 17:41 57.69215 24.22753 28120 ft 346 kts
2026-04-26 17:42 57.71598 24.23571 28532 ft 349 kts
2026-04-26 17:42 57.73996 24.24397 28925 ft 351 kts
2026-04-26 17:42 57.76411 24.25232 29312 ft 354 kts
2026-04-26 17:42 57.78839 24.26072 29689 ft 357 kts
2026-04-26 17:43 57.81263 24.26909 30043 ft 359 kts
2026-04-26 17:43 57.83733 24.27767 30363 ft 363 kts
2026-04-26 17:43 57.86245 24.28636 30505 ft 370 kts
2026-04-26 17:43 57.88794 24.29514 30709 ft 375 kts
2026-04-26 17:44 57.91371 24.30405 30931 ft 378 kts
2026-04-26 17:44 57.93966 24.31299 31180 ft 381 kts
2026-04-26 17:44 57.96596 24.32195 31409 ft 385 kts
2026-04-26 17:44 57.99240 24.33093 31636 ft 388 kts
2026-04-26 17:45 58.01904 24.33997 31921 ft 389 kts
2026-04-26 17:45 58.04572 24.34916 32237 ft 390 kts
2026-04-26 17:45 58.07248 24.35843 32542 ft 392 kts
2026-04-26 17:45 58.09934 24.36775 32842 ft 393 kts
2026-04-26 17:46 58.12630 24.37711 33166 ft 395 kts
2026-04-26 17:46 58.15349 24.38655 33378 ft 399 kts
2026-04-26 17:46 58.18094 24.39606 33641 ft 401 kts
2026-04-26 17:46 58.20808 24.40551 33944 ft 402 kts
2026-04-26 17:47 58.23566 24.41513 34214 ft 404 kts
2026-04-26 17:47 58.25436 24.42163 34393 ft 404 kts
2026-04-26 17:47 58.29104 24.43443 34712 ft 406 kts
2026-04-26 17:47 58.31893 24.44415 34863 ft 407 kts
2026-04-26 17:48 58.37374 24.46328 34892 ft 397 kts
2026-04-26 17:48 58.42796 24.48228 34891 ft 397 kts
2026-04-26 17:49 58.48233 24.50143 34893 ft 398 kts
2026-04-26 17:49 58.53676 24.52078 34892 ft 398 kts
2026-04-26 17:50 58.59119 24.54014 34889 ft 398 kts
2026-04-26 17:50 58.64563 24.55943 34863 ft 398 kts
2026-04-26 17:51 58.70003 24.57882 34915 ft 397 kts
2026-04-26 17:51 58.75436 24.59826 34890 ft 397 kts
2026-04-26 17:52 58.80867 24.61780 34879 ft 396 kts
2026-04-26 17:52 58.86315 24.63447 34730 ft 400 kts 360°
2026-04-26 17:53 58.89092 24.63606 33642 ft 411 kts 359°
2026-04-26 17:53 58.91953 24.63694 32843 ft 408 kts 358°
2026-04-26 17:53 58.94782 24.63743 32269 ft 400 kts 358°
2026-04-26 17:54 59.00254 24.63818 31161 ft 388 kts 358°
2026-04-26 17:54 59.02951 24.63869 30572 ft 383 kts 358°
2026-04-26 17:54 59.05599 24.63934 30044 ft 378 kts 358°
2026-04-26 17:54 59.08206 24.64007 29445 ft 372 kts 358°
2026-04-26 17:55 59.10783 24.64078 28798 ft 368 kts 358°
2026-04-26 17:55 59.13324 24.64143 28168 ft 363 kts 358°
2026-04-26 17:55 59.15837 24.64207 27550 ft 360 kts 358°
2026-04-26 17:55 59.18330 24.64272 26945 ft 356 kts 358°
2026-04-26 17:56 59.20795 24.64335 26349 ft 353 kts 358°
2026-04-26 17:56 59.25666 24.64451 25204 ft 347 kts 358°
2026-04-26 17:57 59.30411 24.64571 23903 ft 337 kts 358°
2026-04-26 17:57 59.32750 24.64629 22883 ft 334 kts 358°
2026-04-26 17:57 59.35059 24.64689 21822 ft 330 kts 359°
2026-04-26 17:57 59.37349 24.64755 20802 ft 327 kts 359°
2026-04-26 17:58 59.44047 24.64936 18146 ft 311 kts 359°
2026-04-26 17:59 59.48333 24.65047 16202 ft 304 kts 359°
2026-04-26 17:59 59.50436 24.65100 15561 ft 294 kts 359°
2026-04-26 17:59 59.52442 24.65152 15209 ft 286 kts 359°
2026-04-26 17:59 59.54403 24.65200 14856 ft 283 kts 359°
2026-04-26 18:00 59.56362 24.65249 14502 ft 280 kts 359°
2026-04-26 18:00 59.58295 24.65297 14152 ft 277 kts 359°
2026-04-26 18:00 59.60211 24.65345 13823 ft 275 kts 359°
2026-04-26 18:00 59.62116 24.65394 13440 ft 273 kts 359°
2026-04-26 18:01 59.64003 24.65444 13085 ft 270 kts 359°
2026-04-26 18:01 59.65865 24.65495 12735 ft 266 kts 359°
2026-04-26 18:01 59.67706 24.65549 12396 ft 263 kts 359°
2026-04-26 18:01 59.69530 24.65603 12057 ft 260 kts 359°
2026-04-26 18:02 59.71327 24.65655 11717 ft 257 kts 359°
2026-04-26 18:02 59.71905 24.65670 11599 ft 256 kts 359°
2026-04-26 18:02 59.74858 24.65741 11043 ft 251 kts 359°
2026-04-26 18:02 59.76595 24.65781 10703 ft 248 kts 359°
2026-04-26 18:03 59.78315 24.65826 10367 ft 246 kts 359°
2026-04-26 18:03 59.79993 24.65870 10039 ft 243 kts 359°
2026-04-26 18:03 59.81675 24.65911 9709 ft 241 kts 359°
2026-04-26 18:03 59.83344 24.65954 9343 ft 238 kts 359°
2026-04-26 18:04 59.84984 24.66003 9006 ft 234 kts 359°
2026-04-26 18:04 59.86603 24.66048 8659 ft 231 kts 359°
2026-04-26 18:04 59.88196 24.66090 8327 ft 227 kts 359°
2026-04-26 18:05 59.91317 24.66170 7676 ft 221 kts 359°
2026-04-26 18:05 59.92847 24.66212 7340 ft 219 kts 359°
2026-04-26 18:05 59.94357 24.66256 7026 ft 215 kts 358°
2026-04-26 18:05 59.95851 24.66299 6757 ft 214 kts 358°
2026-04-26 18:06 59.97336 24.66343 6443 ft 213 kts 358°
2026-04-26 18:06 59.98822 24.66382 6092 ft 213 kts 358°
2026-04-26 18:06 60.00296 24.66414 5733 ft 212 kts 358°
2026-04-26 18:06 60.01766 24.66445 5390 ft 211 kts 358°
2026-04-26 18:07 60.03230 24.66481 5054 ft 210 kts 358°
2026-04-26 18:07 60.04691 24.66517 4692 ft 210 kts 359°
2026-04-26 18:07 60.05657 24.66543 4452 ft 209 kts 359°
2026-04-26 18:07 60.06621 24.66568 4213 ft 209 kts 359°
2026-04-26 18:08 60.08947 24.66638 4004 ft 190 kts 359°
2026-04-26 18:08 60.10225 24.66680 3920 ft 178 kts 358°
2026-04-26 18:08 60.11421 24.66717 3865 ft 166 kts 358°
2026-04-26 18:08 60.12187 24.66738 3822 ft 167 kts 358°
2026-04-26 18:09 60.13741 24.66777 3757 ft 168 kts 358°
2026-04-26 18:09 60.14513 24.66796 3700 ft 167 kts 358°
2026-04-26 18:09 60.15678 24.66825 3608 ft 167 kts 358°
2026-04-26 18:09 60.16838 24.66855 3539 ft 166 kts 358°
2026-04-26 18:10 60.17996 24.66888 3457 ft 166 kts 358°
2026-04-26 18:10 60.19154 24.66922 3390 ft 166 kts 358°
2026-04-26 18:10 60.20276 24.67211 3292 ft 163 kts 13°
2026-04-26 18:10 60.21248 24.68439 3134 ft 170 kts 37°
2026-04-26 18:11 60.22057 24.70190 2934 ft 170 kts 39°
2026-04-26 18:11 60.22856 24.71937 2702 ft 168 kts 39°
2026-04-26 18:11 60.23646 24.73661 2469 ft 165 kts 39°
2026-04-26 18:11 60.24409 24.75329 2239 ft 157 kts 39°
2026-04-26 18:12 60.25111 24.76868 2046 ft 139 kts 38°
2026-04-26 18:12 60.25728 24.78217 1855 ft 128 kts 37°
2026-04-26 18:12 60.26318 24.79502 1684 ft 123 kts 37°
2026-04-26 18:12 60.26898 24.80763 1504 ft 122 kts 38°
2026-04-26 18:13 60.27473 24.82018 1327 ft 122 kts 38°
2026-04-26 18:13 60.28053 24.83283 1145 ft 123 kts 39°
2026-04-26 18:13 60.28633 24.84563 956 ft 124 kts 39°
2026-04-26 18:13 60.29022 24.85419 824 ft 126 kts 38°
2026-04-26 18:14 60.29822 24.87174 569 ft 128 kts 38°
2026-04-26 18:14 60.30432 24.88507 424 ft 130 kts 37°
2026-04-26 18:14 60.31044 24.89833 267 ft 129 kts 38°
2026-04-26 18:14 60.31632 24.91167 148 ft 118 kts 36°
2026-04-26 18:15 60.32116 24.92126 158 ft 82 kts 51°
2026-04-26 18:15 60.32445 24.92883 174 ft 63 kts 49°
2026-04-26 18:15 60.32706 24.93478 180 ft 51 kts 48°
2026-04-26 18:15 60.32931 24.93972 194 ft 45 kts 48°
2026-04-26 18:16 60.33049 24.94295 187 ft 21 kts 78°
2026-04-26 18:16 60.33047 24.94527 184 ft 3 kts 92°
2026-04-26 18:16 60.33046 24.94576 183 ft 4 kts 92°
2026-04-26 18:17 60.33043 24.94707 181 ft 15 kts 92°
2026-04-26 18:17 60.33085 24.94898 178 ft 15 kts 50°
2026-04-26 18:17 60.33110 24.95101 178 ft 15 kts 83°
2026-04-26 18:17 60.33156 24.95276 178 ft 14 kts 47°
2026-04-26 18:18 60.33209 24.95431 182 ft 13 kts 78°
2026-04-26 18:18 60.33174 24.95581 181 ft 14 kts 135°
2026-04-26 18:18 60.33087 24.95743 180 ft 18 kts 138°
2026-04-26 18:18 60.32987 24.95869 179 ft 18 kts 150°
2026-04-26 18:19 60.32869 24.96008 174 ft 20 kts 150°
2026-04-26 18:19 60.32747 24.96150 173 ft 21 kts 149°
2026-04-26 18:19 60.32624 24.96292 173 ft 20 kts 151°
2026-04-26 18:19 60.32512 24.96424 174 ft 18 kts 149°
2026-04-26 18:20 60.32411 24.96543 175 ft 16 kts 150°
2026-04-26 18:20 60.32300 24.96671 167 ft 21 kts 150°
2026-04-26 18:20 60.32173 24.96818 164 ft 21 kts 150°
2026-04-26 18:20 60.32093 24.96914 163 ft 19 kts 149°
2026-04-26 18:21 60.32000 24.96933 163 ft 8 kts 218°
2026-04-26 18:21 60.31977 24.96898 163 ft 1 kts 217°
2026-04-26 18:21 60.31975 24.96895 163 ft 0 kts 217°